Temp
70 71 70 70 70 71 71 71 71 71 71 71 71 71 70 71 71 70 70 69 69 69 69 69 68 67 67 68 68 67 68 68 68 69 68 67 66 66 64 65 65 66
70 70 70 70 70 71 71 72 71 71 71 71 71 72 72 71 70 69 69 68 69 68 70 69 69 68 67 67 66 66 66 67 67 67 66 65 66 66 64 65 64 65
70 69 69 69 69 70 70 71 71 71 71 71 71 71 71 71 70 69 69 69 68 68 68 69 69 68 67 67 67 66 65 65 65 66 65 64 65 65 65 65 64 63
69 70 69 69 69 70 70 70 70 70 71 70 70 70 71 69 69 69 68 65 68 68 68 68 68 68 68 67 66 66 66 65 66 66 65 64 64 65 64 64 64 63
69 69 70 70 70 70 70 69 69 70 70 70 71 70 70 69 68 68 68 67 67 68 68 68 68 68 68 67 66 65 65 65 66 65 64 63 64 64 64 64 62 61
69 70 70 69 70 69 69 69 69 69 69 69 69 70 70 69 69 68 67 67 66 66 67 68 67 68 68 67 66 65 65 65 66 65 63 63 63 63 62 62 62 59
68 69 68 69 69 69 69 69 69 69 70 70 70 69 70 68 68 68 67 67 66 66 66 67 67 67 67 67 66 65 65 65 65 64 63 62 62 61 61 61 60 58
68 69 69 69 68 68 67 68 68 68 69 69 68 69 69 68 68 67 67 67 66 66 66 66 67 67 67 66 65 63 64 64 64 63 62 62 61 59 60 59 58 57
67 67 68 67 67 67 67 67 68 68 69 67 67 68 69 68 67 67 66 66 66 65 66 66 66 66 67 66 65 64 63 62 62 62 61 59 58 58 58 59 57 56
65 66 66 66 65 66 66 67 67 67 68 67 67 67 67 67 67 67 66 66 65 65 65 65 65 65 65 65 65 64 63 62 61 61 60 59 58 58 58 58 57 57
63 64 63 64 64 65 65 66 66 67 67 66 66 66 67 67 66 66 66 65 64 64 65 65 65 65 65 65 64 64 63 61 61 60 59 58 58 59 53 58 57 56
61 61 62 62 63 64 64 65 65 66 65 65 64 65 65 65 65 64 63 63 64 64 64 64 64 64 63 63 62 61 60 60 60 59 59 59 58 58 59 59 57 57
59 60 61 61 61 62 63 63 63 64 64 63 62 61 61 61 61 61 60 61 62 62 62 62 62 61 60 60 60 60 59 58 58 58 58 58 58 58 58 58 58 58
59 59 59 59 60 60 60 60 60 61 62 62 60 59 59 59 59 58 58 58 59 60 60 60 60 59 59 59 59 59 58 57 58 57 57 57 57 58 58 58 58 58
56 56 56 56 56 57 57 58 58 58 58 57 56 56 57 58 59 58 57 56 56 57 58 58 58 58 58 58 58 57 58 57 57 57 56 56 56 56 56 56 56 56
55 54 53 53 54 54 54 55 55 54 53 53 52 53 55 55 56 56 56 56 56 55 56 56 56 57 52 49 50 56 57 57 57 56 56 56 55 53 51 51 53 54
52 52 51 51 51 52 52 51 51 50 50 50 50 50 51 52 52 53 54 55 55 55 54 55 56 55 48 49 48 49 54 57 56 56 55 55 54 52 51 49 48 47
52 51 49 49 48 48 48 48 47 46 45 46 46 46 47 46 48 51 52 53 53 53 54 54 54 48 48 48 47 47 47 54 56 56 55 55 52 50 50 49 48 46
54 52 52 51 50 47 46 45 44 43 43 44 44 45 45 45 47 48 49 50 51 51 52 52 52 48 47 47 47 47 46 48 55 55 54 52 50 49 49 48 47 46
53 51 50 50 49 46 45 43 42 42 43 44 44 44 44 44 45 45 46 47 48 49 50 50 49 46 46 46 45 45 46 46 52 54 52 50 49 48 48 47 47 45
51 49 49 49 48 46 44 42 41 41 42 43 43 43 44 44 44 44 45 45 46 46 46 46 49 45 45 44 45 45 45 45 51 51 50 48 48 47 47 47 47 46
52 51 50 49 47 47 43 42 41 41 41 42 42 42 43 43 43 44 45 44 45 44 44 46 47 44 43 43 44 45 45 46 48 48 48 47 46 45 45 45 45 45
53 51 49 49 48 45 44 43 42 41 41 42 42 41 42 41 42 43 43 44 43 43 44 46 46 44 42 43 43 43 44 46 45 45 45 45 44 43 43 43 43 43
53 52 49 49 48 45 43 45 46 43 42 41 41 40 41 42 42 42 43 43 42 43 43 44 45 43 41 42 42 42 43 44 44 44 43 43 43 41 41 42 41 37
52 50 49 49 46 47 44 43 41 41 41 41 41 41 41 42 41 42 41 40 41 41 38 41 43 41 40 41 41 42 42 44 44 43 43 42 42 41 39 40 39 36
52 43 48 43 42 42 42 43 42 42 40 40 40 40 41 41 41 41 39 40 40 39 40 40 41 42 42 40 40 41 41 42 43 43 42 41 40 41 39 37 38 39
MSLP
1010.68 1010.84 1011.04 1011.20 1011.24 1011.20 1011.24 1011.36 1011.36 1011.56 1011.64 1011.76 1011.96 1012.00 1012.20 1012.28 1012.60 1012.88 1013.04 1013.40 1013.68 1013.80 1013.96 1014.16 1014.32 1014.52 1014.64 1014.72 1014.88 1015.04 1015.00 1014.96 1015.08 1015.08 1015.24 1015.44 1015.48 1015.64 1015.80 1015.88 1016.00 1016.00
1010.20 1010.40 1010.56 1010.72 1010.80 1010.76 1010.80 1010.84 1011.00 1011.16 1011.24 1011.36 1011.40 1011.52 1011.64 1011.88 1012.12 1012.40 1012.68 1012.92 1013.20 1013.40 1013.44 1013.60 1013.80 1013.96 1014.16 1014.32 1014.44 1014.60 1014.64 1014.64 1014.64 1014.68 1014.84 1014.96 1014.96 1015.12 1015.24 1015.32 1015.48 1015.56
1009.84 1010.04 1010.16 1010.24 1010.20 1010.24 1010.44 1010.60 1010.72 1010.80 1010.92 1010.92 1011.04 1011.16 1011.24 1011.40 1011.68 1011.92 1012.16 1012.40 1012.68 1012.92 1013.12 1013.16 1013.28 1013.44 1013.64 1013.76 1013.88 1014.08 1014.16 1014.16 1014.24 1014.24 1014.44 1014.56 1014.52 1014.60 1014.60 1014.80 1014.92 1015.00
1009.36 1009.44 1009.52 1009.64 1009.76 1009.96 1010.12 1010.32 1010.40 1010.48 1010.56 1010.64 1010.60 1010.68 1010.88 1011.04 1011.28 1011.56 1011.76 1012.08 1012.24 1012.40 1012.64 1012.76 1012.80 1012.92 1013.08 1013.24 1013.44 1013.56 1013.56 1013.64 1013.64 1013.80 1014.00 1014.08 1014.08 1014.08 1014.16 1014.24 1014.36 1014.52
1008.84 1009.00 1009.12 1009.20 1009.36 1009.56 1009.76 1009.92 1009.96 1010.00 1010.12 1010.08 1010.20 1010.36 1010.52 1010.72 1010.96 1011.24 1011.44 1011.64 1011.84 1011.96 1012.08 1012.24 1012.36 1012.40 1012.56 1012.76 1012.96 1013.08 1013.12 1013.16 1013.20 1013.36 1013.48 1013.56 1013.56 1013.68 1013.64 1013.76 1013.92 1014.12
1008.56 1008.64 1008.80 1008.96 1009.04 1009.24 1009.40 1009.44 1009.40 1009.48 1009.60 1009.72 1009.76 1009.96 1010.12 1010.28 1010.56 1010.80 1011.00 1011.24 1011.40 1011.56 1011.68 1011.80 1011.92 1011.92 1012.08 1012.24 1012.44 1012.52 1012.60 1012.68 1012.64 1012.80 1012.96 1013.04 1013.00 1013.08 1013.24 1013.32 1013.48 1013.72
1008.32 1008.44 1008.56 1008.64 1008.80 1008.88 1009.00 1008.96 1008.96 1009.00 1009.08 1009.12 1009.40 1009.56 1009.64 1009.88 1010.12 1010.28 1010.48 1010.68 1010.84 1011.04 1011.16 1011.28 1011.44 1011.48 1011.60 1011.80 1011.92 1011.92 1011.96 1012.00 1012.12 1012.28 1012.40 1012.44 1012.52 1012.60 1012.76 1012.96 1013.04 1013.24
1008.16 1008.16 1008.20 1008.32 1008.44 1008.48 1008.56 1008.48 1008.48 1008.52 1008.60 1008.88 1009.04 1009.00 1009.20 1009.36 1009.56 1009.76 1009.92 1010.12 1010.32 1010.48 1010.64 1010.76 1010.88 1010.92 1011.08 1011.24 1011.36 1011.44 1011.48 1011.48 1011.60 1011.72 1011.84 1011.96 1012.12 1012.28 1012.40 1012.48 1012.72 1012.88
1008.08 1008.04 1008.12 1008.24 1008.32 1008.28 1008.24 1008.16 1008.12 1008.20 1008.32 1008.52 1008.60 1008.68 1008.76 1008.88 1009.04 1009.20 1009.44 1009.64 1009.84 1010.00 1010.12 1010.24 1010.32 1010.40 1010.44 1010.56 1010.72 1010.80 1010.88 1011.00 1011.08 1011.20 1011.32 1011.56 1011.76 1011.84 1011.96 1012.08 1012.32 1012.32
1007.92 1007.96 1008.04 1008.08 1008.12 1007.96 1008.00 1007.92 1007.96 1008.12 1008.16 1008.28 1008.28 1008.40 1008.52 1008.56 1008.64 1008.84 1009.08 1009.24 1009.40 1009.52 1009.64 1009.68 1009.76 1009.88 1009.92 1009.96 1010.12 1010.24 1010.32 1010.44 1010.60 1010.72 1010.84 1011.00 1011.12 1011.24 1011.44 1011.64 1011.72 1011.88
1007.80 1007.84 1007.88 1007.84 1007.80 1007.80 1007.80 1007.88 1008.00 1008.16 1008.16 1008.12 1008.12 1008.16 1008.16 1008.32 1008.40 1008.48 1008.68 1008.80 1008.84 1008.84 1008.96 1009.08 1009.12 1009.28 1009.40 1009.48 1009.60 1009.68 1009.80 1009.96 1010.08 1010.20 1010.32 1010.44 1010.56 1010.68 1010.84 1011.00 1011.16 1011.24
1007.80 1007.76 1007.64 1007.56 1007.64 1007.68 1007.68 1007.76 1007.88 1008.00 1008.00 1008.04 1008.00 1007.88 1007.96 1008.00 1008.04 1008.16 1008.24 1008.28 1008.32 1008.36 1008.48 1008.56 1008.64 1008.76 1008.88 1008.96 1009.16 1009.32 1009.44 1009.56 1009.60 1009.68 1009.76 1009.92 1010.04 1010.16 1010.24 1010.40 1010.52 1010.64
1007.60 1007.56 1007.52 1007.52 1007.56 1007.56 1007.60 1007.64 1007.68 1007.72 1007.80 1007.80 1007.84 1007.92 1007.92 1007.84 1007.76 1007.80 1007.88 1008.04 1008.04 1008.12 1008.12 1008.16 1008.28 1008.44 1008.60 1008.68 1008.72 1008.84 1009.00 1009.16 1009.24 1009.28 1009.36 1009.44 1009.52 1009.60 1009.72 1009.80 1009.92 1010.04
1007.56 1007.56 1007.60 1007.60 1007.60 1007.60 1007.60 1007.56 1007.56 1007.60 1007.56 1007.60 1007.72 1007.84 1007.72 1007.60 1007.56 1007.60 1007.56 1007.80 1007.76 1007.76 1007.68 1007.84 1007.92 1008.00 1008.16 1008.24 1008.32 1008.40 1008.52 1008.64 1008.72 1008.84 1008.92 1009.00 1009.04 1009.16 1009.20 1009.32 1009.40 1009.48
1007.80 1007.88 1007.96 1007.88 1007.80 1007.68 1007.52 1007.44 1007.40 1007.44 1007.60 1007.68 1007.68 1007.60 1007.48 1007.36 1007.28 1007.32 1007.40 1007.44 1007.44 1007.40 1007.40 1007.48 1007.56 1007.52 1007.56 1007.64 1007.80 1007.88 1008.00 1008.08 1008.16 1008.32 1008.44 1008.56 1008.64 1008.72 1008.76 1008.84 1008.96 1009.04
1007.64 1007.80 1007.92 1007.92 1007.84 1007.60 1007.44 1007.40 1007.44 1007.48 1007.56 1007.56 1007.48 1007.36 1007.32 1007.28 1007.24 1007.16 1007.16 1007.08 1007.04 1007.04 1007.12 1007.08 1007.04 1006.96 1006.96 1007.12 1007.24 1007.36 1007.56 1007.64 1007.76 1007.84 1007.96 1008.08 1008.24 1008.40 1008.60 1008.68 1008.68 1008.76
1007.72 1007.76 1007.84 1007.88 1007.68 1007.56 1007.40 1007.40 1007.48 1007.52 1007.52 1007.40 1007.32 1007.24 1007.16 1007.12 1007.20 1007.12 1006.92 1006.72 1006.68 1006.72 1006.76 1006.72 1006.60 1006.52 1006.64 1006.80 1006.92 1007.08 1007.16 1007.20 1007.32 1007.44 1007.56 1007.64 1007.72 1007.84 1008.12 1008.36 1008.56 1008.72
1007.36 1007.48 1007.56 1007.52 1007.56 1007.44 1007.36 1007.48 1007.60 1007.60 1007.48 1007.32 1007.20 1007.08 1007.00 1007.12 1007.04 1006.72 1006.56 1006.56 1006.52 1006.44 1006.36 1006.24 1006.20 1006.20 1006.44 1006.52 1006.68 1006.84 1007.00 1006.96 1006.96 1007.04 1007.12 1007.20 1007.40 1007.60 1007.76 1008.00 1008.20 1008.44
1006.68 1006.92 1006.88 1006.88 1007.00 1007.36 1007.48 1007.72 1007.72 1007.68 1007.52 1007.36 1007.00 1006.72 1006.88 1006.84 1006.52 1006.52 1006.36 1006.28 1006.24 1006.12 1005.96 1005.88 1005.92 1005.92 1006.12 1006.20 1006.36 1006.52 1006.68 1006.88 1006.72 1006.68 1006.76 1006.84 1007.04 1007.20 1007.36 1007.64 1007.92 1008.08
1006.36 1006.64 1006.80 1006.68 1006.80 1007.08 1007.24 1007.44 1007.52 1007.40 1007.32 1007.28 1007.16 1007.00 1006.72 1006.40 1006.28 1006.16 1006.04 1006.04 1005.88 1005.76 1005.60 1005.60 1005.60 1005.60 1005.72 1005.84 1006.08 1006.20 1006.36 1006.60 1006.56 1006.48 1006.48 1006.56 1006.72 1006.92 1007.08 1007.24 1007.44 1007.68
1006.48 1006.64 1006.60 1006.44 1006.48 1006.76 1006.96 1007.16 1007.20 1007.12 1007.04 1007.00 1007.00 1006.88 1006.72 1006.28 1005.96 1005.84 1005.72 1005.72 1005.68 1005.64 1005.56 1005.40 1005.16 1005.24 1005.44 1005.56 1005.72 1005.88 1006.04 1006.28 1006.32 1006.28 1006.28 1006.44 1006.52 1006.64 1006.80 1006.88 1007.04 1007.24
1006.08 1006.16 1006.16 1006.12 1006.20 1006.40 1006.68 1006.72 1006.68 1006.68 1006.64 1006.76 1006.80 1006.56 1006.44 1006.32 1005.92 1005.64 1005.40 1005.40 1005.44 1005.56 1005.52 1005.12 1004.76 1005.00 1005.12 1005.28 1005.36 1005.52 1005.72 1006.00 1006.04 1006.08 1006.08 1006.16 1006.32 1006.52 1006.64 1006.76 1006.84 1006.92
1005.80 1005.76 1005.64 1005.60 1005.68 1005.88 1006.00 1006.00 1005.96 1006.00 1006.24 1006.44 1006.48 1006.28 1006.24 1006.00 1005.64 1005.48 1005.36 1005.36 1005.28 1005.24 1005.12 1004.76 1004.60 1004.76 1004.92 1004.92 1005.04 1005.20 1005.48 1005.52 1005.60 1005.72 1005.84 1005.92 1005.96 1006.20 1006.44 1006.56 1006.64 1006.68
1005.56 1005.60 1005.44 1005.32 1005.40 1005.36 1005.20 1005.20 1005.32 1005.48 1005.60 1005.84 1005.92 1005.88 1005.80 1005.60 1005.64 1005.52 1005.36 1005.24 1005.08 1004.92 1004.80 1004.68 1004.44 1004.56 1004.76 1004.72 1004.76 1004.84 1004.96 1005.04 1005.20 1005.36 1005.48 1005.64 1005.80 1006.08 1006.28 1006.44 1006.44 1006.44
1005.40 1005.44 1005.32 1005.12 1004.96 1004.80 1004.88 1004.88 1004.88 1005.00 1005.08 1005.32 1005.32 1005.36 1005.28 1005.32 1005.36 1005.32 1005.16 1005.12 1004.96 1004.84 1004.72 1004.64 1004.32 1004.32 1004.44 1004.48 1004.52 1004.56 1004.72 1004.72 1004.80 1004.92 1005.04 1005.20 1005.44 1005.76 1006.20 1006.36 1006.44 1006.56
1005.36 1005.36 1005.20 1005.08 1004.84 1004.68 1004.64 1004.52 1004.44 1004.56 1004.76 1004.84 1004.84 1004.92 1004.88 1004.84 1004.96 1004.96 1004.92 1004.72 1004.76 1004.88 1004.72 1004.52 1004.36 1004.12 1004.12 1004.12 1004.20 1004.28 1004.32 1004.36 1004.48 1004.52 1004.36 1004.56 1005.08 1005.32 1005.76 1006.20 1006.32 1006.48
Wind_Speed
14 13 13 12 13 12 12 12 11 11 11 11 11 11 11 11 11 12 14 13 14 15 15 15 15 15 14 15 14 14 14 16 15 14 15 15 16 17 16 17 17 15
15 14 12 11 11 11 12 12 12 11 11 11 11 10 10 10 11 11 12 13 13 15 16 15 15 15 15 14 15 15 14 15 16 12 14 17 17 16 18 19 18 17
14 14 15 15 14 15 13 12 11 11 11 11 11 11 10 9 11 11 12 12 13 14 16 16 16 16 16 15 15 14 15 16 16 15 14 16 16 16 17 17 15 16
15 15 14 15 14 14 12 11 11 11 11 11 12 11 10 8 10 11 11 12 13 14 15 15 16 16 16 16 15 14 15 16 15 14 14 14 15 16 17 15 13 12
15 14 13 13 13 13 12 12 13 12 13 13 11 11 10 10 10 10 10 11 12 13 14 16 16 16 15 15 15 15 15 14 15 15 14 16 15 15 15 14 13 13
12 12 12 12 12 12 12 13 13 13 13 13 13 10 10 11 10 11 11 12 11 13 13 16 16 16 15 15 15 15 14 14 14 16 16 15 15 14 11 12 14 13
12 11 13 11 12 12 13 13 13 13 13 12 10 11 11 10 11 12 12 13 13 12 14 16 17 15 15 14 15 16 15 16 15 15 16 16 13 11 10 13 13 12
12 10 11 11 12 13 13 14 13 13 12 11 12 12 11 11 12 12 12 13 13 13 13 14 15 15 17 15 15 16 16 13 14 16 16 14 10 13 13 10 11 11
10 10 9 10 12 12 13 14 13 12 10 11 11 11 11 11 12 12 12 12 12 13 13 14 16 16 17 17 16 17 17 16 15 16 15 12 13 12 12 11 11 12
9 9 9 10 11 11 13 13 11 10 9 10 12 11 11 11 11 12 13 14 14 14 16 16 17 18 17 15 18 17 17 17 16 15 13 13 13 13 12 12 13 12
10 9 10 11 12 10 12 11 11 13 12 14 13 14 16 15 13 13 16 16 16 18 18 18 18 18 18 17 18 16 16 15 14 12 13 13 13 13 12 13 13 13
9 8 10 11 10 10 11 10 11 14 14 12 13 15 15 15 14 13 13 16 16 17 17 17 17 16 16 16 16 13 12 12 12 12 13 13 13 13 13 13 13 13
8 9 8 8 8 8 7 7 9 13 14 14 10 11 11 11 11 12 11 12 13 12 13 13 13 12 12 13 13 13 13 13 13 13 13 12 12 12 12 12 13 13
7 5 5 6 6 6 7 8 8 10 14 13 11 11 12 12 12 12 11 11 12 13 14 12 12 12 12 13 13 13 12 13 13 12 12 12 12 12 12 12 12 12
4 4 5 6 6 7 8 9 9 9 10 10 9 10 10 11 12 11 11 11 11 13 12 12 12 13 12 12 12 13 13 12 12 12 12 11 11 11 11 11 11 11
5 5 5 6 7 8 8 7 7 8 9 9 10 10 11 10 10 10 10 11 12 12 11 11 11 11 14 18 16 12 11 11 10 11 12 11 11 10 9 9 10 9
5 6 5 7 8 7 7 7 8 8 9 10 10 10 10 10 9 10 11 11 11 11 11 11 11 11 16 16 18 18 14 11 11 10 10 10 10 11 11 10 9 8
6 6 6 7 6 7 6 6 6 7 9 10 10 10 10 6 9 12 11 10 10 10 11 12 12 13 15 16 17 18 16 12 10 10 10 11 10 10 9 9 9 8
4 4 5 5 6 7 3 5 6 8 10 10 12 10 7 9 11 10 11 10 10 12 12 11 10 12 15 17 17 17 18 16 11 10 10 9 8 9 9 9 8 8
4 4 6 7 5 5 4 5 7 9 10 9 9 8 10 10 10 11 11 11 12 12 11 10 10 12 15 16 16 17 17 15 12 11 9 8 9 9 9 9 9 9
5 6 7 7 6 5 5 7 8 9 10 9 9 10 11 11 10 10 11 11 11 10 10 11 12 14 14 15 15 16 17 15 11 10 9 7 8 8 9 10 9 9
5 6 7 6 6 7 7 9 9 10 10 8 8 9 9 8 9 9 11 11 10 8 10 13 12 13 14 15 16 16 16 11 9 9 9 8 8 8 8 7 7 8
6 6 7 7 6 7 8 9 9 10 7 6 9 9 9 10 10 9 9 9 10 10 11 13 11 11 14 15 16 16 12 9 9 8 8 9 9 7 8 7 7 7
5 6 7 7 6 8 8 8 7 7 6 5 9 9 10 10 7 8 8 9 10 11 11 11 11 9 13 15 16 16 13 10 8 8 9 8 7 6 5 6 7 11
6 6 7 8 9 11 8 8 7 6 5 5 7 8 9 6 5 7 7 6 8 10 9 12 11 9 12 15 16 15 12 9 7 7 8 8 8 7 5 5 5 6
6 5 9 6 8 8 7 7 4 4 6 6 6 6 6 6 7 7 9 9 7 7 10 10 10 9 10 15 15 16 17 10 6 8 10 9 7 7 6 5 6 6
Wind_Direction
219 220 223 222 225 229 229 226 223 219 216 216 219 217 211 213 206 207 209 214 223 227 226 225 224 224 226 226 223 224 228 231 232 231 229 227 231 230 230 230 228 230
217 217 219 221 226 226 229 228 226 223 223 220 221 222 218 210 204 198 202 208 217 226 230 228 226 225 223 222 221 222 227 230 231 228 228 228 231 231 232 232 231 230
217 216 216 218 222 227 227 227 229 229 228 227 225 223 223 209 204 199 204 207 212 223 229 230 228 225 224 222 222 222 224 228 230 228 226 229 231 230 233 232 231 227
218 217 218 221 224 228 227 228 226 228 230 230 226 223 216 209 204 207 206 206 213 220 228 228 227 226 225 224 223 225 226 229 231 228 227 228 230 232 231 231 228 224
217 218 219 222 222 223 224 225 227 226 227 229 230 223 217 215 209 211 210 209 211 217 225 231 228 227 226 225 223 225 227 230 229 228 228 227 229 229 231 230 224 222
223 221 221 221 221 220 222 226 228 228 226 229 229 225 224 219 213 212 212 211 210 215 218 231 228 229 228 227 224 224 227 228 230 227 227 228 230 227 227 225 223 220
223 220 223 222 224 224 226 229 231 229 229 229 227 227 222 213 213 215 214 213 213 211 215 224 229 223 228 227 225 227 227 229 230 228 226 228 227 223 216 222 222 222
229 227 223 221 221 224 224 228 229 227 225 223 224 226 221 217 216 217 215 215 215 215 215 219 225 218 229 225 224 224 226 227 228 228 227 227 221 226 221 216 214 219
233 231 228 226 227 229 230 230 230 229 224 220 222 231 227 220 218 217 215 213 214 216 216 220 226 228 227 225 224 224 223 223 224 224 225 220 220 222 222 218 219 220
233 233 233 231 233 234 237 236 233 232 226 228 231 230 229 226 219 220 227 224 222 224 228 228 227 228 225 220 227 226 225 224 224 224 221 222 223 223 219 218 221 222
233 227 229 232 234 239 242 243 246 251 248 244 238 240 242 240 237 229 233 231 229 229 228 229 228 227 228 226 227 227 226 223 221 219 222 223 224 224 219 218 220 223
236 230 231 233 236 240 245 247 249 251 250 246 238 238 238 237 234 229 224 227 228 228 229 230 229 225 226 225 223 220 220 223 224 224 224 224 223 222 222 219 222 222
233 230 233 238 240 244 248 247 243 249 249 248 242 236 233 231 228 227 224 225 228 226 225 222 223 220 223 224 224 222 220 221 223 224 226 225 223 222 221 222 222 223
244 245 247 249 252 251 250 249 246 245 249 248 244 234 229 231 230 225 225 219 224 227 229 225 224 222 219 221 221 220 219 221 220 222 225 225 225 223 222 224 223 222
273 272 266 263 255 252 247 245 245 246 247 241 237 238 234 236 235 230 225 222 223 224 224 220 222 222 219 217 219 219 219 221 220 221 222 225 226 224 223 223 223 222
256 250 247 250 251 245 242 243 245 246 245 241 238 237 239 237 238 235 229 226 225 225 224 223 223 223 220 217 214 216 218 223 222 221 220 222 223 225 225 223 224 222
254 252 242 247 245 248 247 240 242 244 244 245 243 241 238 237 235 236 233 231 229 227 225 226 227 225 220 217 218 216 218 221 220 224 223 223 220 216 221 220 222 221
234 237 236 244 240 245 243 249 252 248 247 243 243 238 236 231 231 231 235 233 232 231 230 228 230 228 220 220 219 219 219 224 225 224 221 221 217 216 219 217 216 215
246 261 267 267 268 273 255 260 254 253 250 248 243 239 231 226 231 230 233 231 228 229 232 231 234 226 222 222 220 219 220 221 230 227 223 222 215 211 209 210 210 211
277 273 273 269 266 267 261 253 251 248 251 251 256 248 234 234 231 230 232 228 227 229 232 233 232 226 221 223 221 220 220 218 229 228 228 219 212 209 209 208 204 201
260 252 256 262 262 257 252 252 248 254 251 248 242 241 240 237 232 230 231 231 231 229 234 236 235 225 221 221 221 221 221 218 227 228 226 224 220 213 210 208 201 199
238 244 246 248 248 259 245 250 246 244 247 248 247 247 244 248 246 236 235 231 231 228 233 240 239 221 218 219 221 222 221 219 221 225 226 220 219 216 213 211 205 196
243 242 245 243 238 233 235 245 248 248 236 228 243 244 245 241 242 240 243 239 235 230 233 244 248 225 217 220 221 219 214 217 214 216 219 218 218 210 208 204 200 194
259 253 253 247 235 231 232 240 247 254 244 216 224 240 242 246 252 254 245 237 234 232 227 238 245 224 217 222 220 216 206 209 205 204 212 210 214 205 204 206 204 191
283 268 259 255 254 247 246 252 244 237 232 221 226 228 242 249 244 250 253 244 240 241 232 232 244 233 220 223 220 215 207 208 199 198 204 209 201 200 168 198 201 201
277 265 263 261 261 263 256 247 236 232 225 221 225 222 233 232 238 240 247 249 243 244 241 236 240 239 221 223 219 216 207 200 196 197 209 206 197 191 186 203 205 200